C2015 KOPF-KOPF

Flight info

Callsign C2015
Flight time 0h 36m
Altitude 12000
Route VFR E
Aircraft C30J/M-SDE2E3FGRY/S

Departure

Time 2026-04-20 15:53
Airport Miami-Opa Locka Executive Airport (KOPF)

Arrival

Time 2026-04-20 16:29
Airport Miami-Opa Locka Executive Airport (KOPF)
Time Latitude Longitude Altitude Speed Heading
2026-04-20 15:50 25.90808 -80.28201 14 ft 20 kts 304°
2026-04-20 15:50 25.90923 -80.28406 14 ft 42 kts 301°
2026-04-20 15:51 25.91017 -80.28741 15 ft 44 kts 262°
2026-04-20 15:51 25.91011 -80.28777 14 ft 0 kts 241°
2026-04-20 15:51 25.91007 -80.28777 14 ft 1 kts 172°
2026-04-20 15:52 25.91006 -80.28776 17 ft 1 kts 149°
2026-04-20 15:52 25.91000 -80.28761 17 ft 3 kts 110°
2026-04-20 15:53 25.90697 -80.28032 95 ft 125 kts 127°
2026-04-20 15:53 25.90121 -80.27173 510 ft 150 kts 110°
2026-04-20 15:53 25.89662 -80.26154 1366 ft 147 kts 116°
2026-04-20 15:53 25.89217 -80.24966 1816 ft 195 kts 104°
2026-04-20 15:54 25.88878 -80.23324 2016 ft 235 kts 101°
2026-04-20 15:54 25.88597 -80.21524 2782 ft 240 kts 98°
2026-04-20 15:54 25.88348 -80.19637 3320 ft 251 kts 97°
2026-04-20 15:54 25.88123 -80.17652 3520 ft 270 kts 95°
2026-04-20 15:55 25.87919 -80.15507 3467 ft 288 kts 95°
2026-04-20 15:55 25.87728 -80.13257 3684 ft 284 kts 94°
2026-04-20 15:55 25.87560 -80.11207 4107 ft 270 kts 95°
2026-04-20 15:55 25.87367 -80.08819 2972 ft 320 kts 95°
2026-04-20 15:56 25.87174 -80.06549 3120 ft 272 kts 95°
2026-04-20 15:56 25.87005 -80.04605 3306 ft 235 kts 95°
2026-04-20 15:56 25.86848 -80.02901 3495 ft 220 kts 95°
2026-04-20 15:56 25.86685 -80.01138 3551 ft 239 kts 95°
2026-04-20 15:57 25.86512 -79.99245 3538 ft 254 kts 95°
2026-04-20 15:57 25.86334 -79.97284 3533 ft 263 kts 95°
2026-04-20 15:57 25.86148 -79.95234 3530 ft 270 kts 95°
2026-04-20 15:57 25.85956 -79.93107 3239 ft 284 kts 95°
2026-04-20 15:58 25.85761 -79.90885 2926 ft 293 kts 95°
2026-04-20 15:58 25.85570 -79.88614 2601 ft 299 kts 95°
2026-04-20 15:58 25.85384 -79.86313 2376 ft 299 kts 95°
2026-04-20 15:58 25.85203 -79.84026 2257 ft 295 kts 95°
2026-04-20 15:59 25.85027 -79.81769 2190 ft 291 kts 95°
2026-04-20 15:59 25.84856 -79.79552 2159 ft 287 kts 95°
2026-04-20 15:59 25.84700 -79.77355 2142 ft 283 kts 95°
2026-04-20 15:59 25.84380 -79.75369 2205 ft 242 kts 116°
2026-04-20 16:00 25.83336 -79.74040 1778 ft 224 kts 141°
2026-04-20 16:00 25.82136 -79.73006 1293 ft 215 kts 143°
2026-04-20 16:00 25.81058 -79.71899 811 ft 209 kts 130°
2026-04-20 16:00 25.80247 -79.70709 749 ft 183 kts 127°
2026-04-20 16:01 25.79917 -79.69394 761 ft 190 kts 77°
2026-04-20 16:01 25.80701 -79.68219 885 ft 196 kts 28°
2026-04-20 16:01 25.81992 -79.68136 1252 ft 190 kts 337°
2026-04-20 16:01 25.83004 -79.69107 1336 ft 203 kts 301°
2026-04-20 16:02 25.83453 -79.70738 1350 ft 239 kts 270°
2026-04-20 16:02 25.83073 -79.72504 1825 ft 233 kts 240°
2026-04-20 16:02 25.81958 -79.73795 1851 ft 237 kts 210°
2026-04-20 16:02 25.80408 -79.74223 1642 ft 229 kts 175°
2026-04-20 16:03 25.79030 -79.73515 1536 ft 218 kts 130°
2026-04-20 16:03 25.78605 -79.71992 1479 ft 211 kts 82°
2026-04-20 16:03 25.78915 -79.71116 1380 ft 211 kts 55°
2026-04-20 16:04 25.79850 -79.70140 1245 ft 210 kts 32°
2026-04-20 16:04 25.81201 -79.69591 1110 ft 213 kts
2026-04-20 16:05 25.82584 -79.70162 1193 ft 222 kts 314°
2026-04-20 16:05 25.83177 -79.71717 1273 ft 226 kts 267°
2026-04-20 16:05 25.82555 -79.73240 1538 ft 220 kts 219°
2026-04-20 16:05 25.81108 -79.73666 1584 ft 229 kts 169°
2026-04-20 16:06 25.79817 -79.72621 1055 ft 239 kts 117°
2026-04-20 16:06 25.79906 -79.70893 501 ft 229 kts 52°
2026-04-20 16:06 25.81117 -79.70078 729 ft 188 kts 10°
2026-04-20 16:06 25.82230 -79.70368 806 ft 160 kts 311°
2026-04-20 16:07 25.82433 -79.71608 903 ft 187 kts 250°
2026-04-20 16:07 25.81544 -79.72829 1065 ft 221 kts 202°
2026-04-20 16:07 25.80102 -79.72674 1844 ft 225 kts 141°
2026-04-20 16:07 25.79565 -79.70969 1765 ft 260 kts 78°
2026-04-20 16:08 25.80579 -79.69388 2357 ft 261 kts 29°
2026-04-20 16:08 25.82368 -79.69322 2501 ft 277 kts 332°
2026-04-20 16:08 25.83363 -79.71110 2265 ft 295 kts 267°
2026-04-20 16:08 25.82318 -79.72961 2504 ft 288 kts 212°
2026-04-20 16:09 25.80461 -79.73214 3266 ft 275 kts 158°
2026-04-20 16:09 25.79332 -79.71551 3178 ft 296 kts 95°
2026-04-20 16:09 25.80310 -79.69565 2635 ft 320 kts 28°
2026-04-20 16:09 25.82386 -79.69673 2930 ft 306 kts 324°
2026-04-20 16:10 25.83912 -79.71210 3560 ft 289 kts 314°
2026-04-20 16:10 25.85261 -79.72732 4460 ft 270 kts 313°
2026-04-20 16:10 25.86572 -79.74338 4433 ft 285 kts 310°
2026-04-20 16:10 25.88183 -79.75378 4602 ft 277 kts 353°
2026-04-20 16:11 25.90042 -79.74805 4210 ft 283 kts 36°
2026-04-20 16:11 25.91151 -79.73136 3901 ft 270 kts 71°
2026-04-20 16:11 25.91261 -79.71133 3672 ft 256 kts 102°
2026-04-20 16:11 25.90547 -79.69382 3423 ft 246 kts 127°
2026-04-20 16:12 25.89317 -79.68113 3035 ft 240 kts 147°
2026-04-20 16:12 25.87746 -79.67774 1942 ft 252 kts 207°
2026-04-20 16:12 25.86273 -79.68712 1734 ft 221 kts 208°
2026-04-20 16:12 25.85071 -79.69442 1597 ft 176 kts 210°
2026-04-20 16:13 25.84041 -79.70066 1163 ft 168 kts 206°
2026-04-20 16:13 25.82987 -79.70649 813 ft 173 kts 206°
2026-04-20 16:13 25.81882 -79.71265 409 ft 177 kts 207°
2026-04-20 16:13 25.81432 -79.71527 326 ft 174 kts 208°
2026-04-20 16:14 25.81249 -79.71637 294 ft 172 kts 208°
2026-04-20 16:14 25.80533 -79.72074 233 ft 186 kts 209°
2026-04-20 16:14 25.79325 -79.72831 301 ft 198 kts 210°
2026-04-20 16:15 25.78578 -79.73948 970 ft 180 kts 274°
2026-04-20 16:15 25.79013 -79.75369 880 ft 217 kts 291°
2026-04-20 16:15 25.79611 -79.76924 1167 ft 220 kts 294°
2026-04-20 16:15 25.80318 -79.78462 1532 ft 229 kts 297°
2026-04-20 16:16 25.81094 -79.80016 2144 ft 228 kts 300°
2026-04-20 16:16 25.81884 -79.81501 2993 ft 219 kts 301°
2026-04-20 16:16 25.82653 -79.82949 3590 ft 225 kts 301°
2026-04-20 16:16 25.83488 -79.84522 3763 ft 241 kts 301°
2026-04-20 16:17 25.84321 -79.86084 4361 ft 228 kts 301°
2026-04-20 16:17 25.85104 -79.87581 4947 ft 224 kts 300°
2026-04-20 16:17 25.85893 -79.89102 5275 ft 232 kts 300°
2026-04-20 16:17 25.86701 -79.90705 5417 ft 241 kts 299°
2026-04-20 16:18 25.87535 -79.92312 5804 ft 237 kts 300°
2026-04-20 16:18 25.88365 -79.93870 6287 ft 234 kts 300°
2026-04-20 16:18 25.89239 -79.95502 6122 ft 252 kts 300°
2026-04-20 16:18 25.90125 -79.97160 6217 ft 246 kts 300°
2026-04-20 16:19 25.90932 -79.98784 6472 ft 238 kts 296°
2026-04-20 16:19 25.91587 -80.00513 6294 ft 247 kts 290°
2026-04-20 16:19 25.92220 -80.02295 6214 ft 249 kts 291°
2026-04-20 16:19 25.92851 -80.04066 6081 ft 251 kts 291°
2026-04-20 16:20 25.93469 -80.05879 6075 ft 248 kts 289°
2026-04-20 16:20 25.94060 -80.07664 6333 ft 237 kts 289°
2026-04-20 16:20 25.94570 -80.09319 6450 ft 236 kts 288°
2026-04-20 16:20 25.95175 -80.11128 5678 ft 249 kts 291°
2026-04-20 16:21 25.95814 -80.12918 5162 ft 248 kts 291°
2026-04-20 16:21 25.96440 -80.14682 4791 ft 242 kts 291°
2026-04-20 16:21 25.97058 -80.16391 4620 ft 232 kts 292°
2026-04-20 16:21 25.97667 -80.18023 4452 ft 228 kts 293°
2026-04-20 16:22 25.98260 -80.19615 4078 ft 231 kts 293°
2026-04-20 16:22 25.98751 -80.21309 3833 ft 224 kts 281°
2026-04-20 16:22 25.98858 -80.22892 4184 ft 194 kts 271°
2026-04-20 16:22 25.98829 -80.24375 4345 ft 197 kts 269°
2026-04-20 16:23 25.98818 -80.25949 4480 ft 203 kts 271°
2026-04-20 16:23 25.98849 -80.27506 4813 ft 199 kts 272°
2026-04-20 16:23 25.98893 -80.29021 5243 ft 194 kts 272°
2026-04-20 16:23 25.98320 -80.30373 4452 ft 211 kts 214°
2026-04-20 16:24 25.96967 -80.30154 3191 ft 209 kts 135°
2026-04-20 16:24 25.95826 -80.29340 2635 ft 186 kts 177°
2026-04-20 16:24 25.94812 -80.29991 2098 ft 190 kts 234°
2026-04-20 16:24 25.93799 -80.31028 1684 ft 200 kts 206°
2026-04-20 16:25 25.92516 -80.30959 839 ft 194 kts 144°
2026-04-20 16:25 25.91667 -80.29972 279 ft 160 kts 121°
2026-04-20 16:25 25.91150 -80.29032 105 ft 130 kts 121°
2026-04-20 16:25 25.90711 -80.28245 58 ft 129 kts 121°
2026-04-20 16:26 25.90161 -80.27273 378 ft 155 kts 120°
2026-04-20 16:26 25.89501 -80.26432 1223 ft 148 kts 160°
2026-04-20 16:26 25.88384 -80.26818 1382 ft 188 kts 226°
2026-04-20 16:26 25.88086 -80.28279 1510 ft 216 kts 282°
2026-04-20 16:27 25.88730 -80.29835 1806 ft 221 kts 300°
2026-04-20 16:27 25.89481 -80.31319 1987 ft 219 kts 300°
2026-04-20 16:27 25.90231 -80.32804 1875 ft 221 kts 300°
2026-04-20 16:27 25.91033 -80.34247 1755 ft 222 kts 314°
2026-04-20 16:28 25.92397 -80.34849 1617 ft 206 kts
2026-04-20 16:28 25.93506 -80.34050 1351 ft 195 kts 64°
2026-04-20 16:28 25.93421 -80.32600 923 ft 200 kts 121°
2026-04-20 16:28 25.92583 -80.31384 675 ft 190 kts 126°
2026-04-20 16:29 25.91828 -80.30233 429 ft 179 kts 121°
2026-04-20 16:29 25.91177 -80.29097 68 ft 168 kts 121°
2026-04-20 16:29 25.90624 -80.28106 16 ft 121 kts 122°
2026-04-20 16:29 25.90458 -80.27814 16 ft 12 kts 115°
2026-04-20 16:30 25.90395 -80.27689 15 ft 18 kts 123°
2026-04-20 16:30 25.90342 -80.27597 14 ft 11 kts 123°
2026-04-20 16:30 25.90306 -80.27536 13 ft 8 kts 123°
2026-04-20 16:30 25.90295 -80.27517 13 ft 3 kts 122°
2026-04-20 16:31 25.90262 -80.27458 13 ft 7 kts 122°